Weather History for Cedar Rapids, IA

Change the Weather History Date:

Thursday, May 16, 2013

  Actual Average Record
Temperature  
Mean Temperature 67 °F 60 °F  
Max Temperature 82 °F 71 °F 90 °F (1992)
Min Temperature 52 °F 49 °F 31 °F (1997)
Degree Days  
Heating Degree Days 0 6  
Month to date heating degree days 142 129  
Since 1 July heating degree days 6926 6774  
Cooling Degree Days 2 1  
Month to date cooling degree days 16 11  
Year to date cooling degree days 27 18  
Growing Degree Days 18 (Base 50)    
Moisture  
Dew Point 49 °F    
Average Humidity 56    
Maximum Humidity 83    
Minimum Humidity 28    
Precipitation  
Precipitation 0.00 in 0.13 in 2.62 in (1974)
Month to date precipitation 3.13 2.08  
Year to date precipitation 15.97 9.37  
Sea Level Pressure  
Sea Level Pressure 29.87 in    
Wind  
Wind Speed 6 mph (SE)    
Max Wind Speed 15 mph    
Max Gust Speed 18 mph    
Visibility 10 miles    
Events      
T = Trace of Precipitation, MM = Missing Value Source: NWS Daily Summary

Daily Weather History Graph

Daily Weather History Graph

Search for Another Location

Airport:

Trip Planner

Search our weather history database for the weather conditions in past years. The results will help you decide how hot, cold, wet, or windy it might be!

Date:

Astronomy

May. 16, 2013 Rise Set
Actual Time 5:45 AM CDT 8:21 PM CDT
Civil Twilight 5:13 AM CDT 8:53 PM CDT
Nautical Twilight 4:33 AM CDT 9:33 PM CDT
Astronomical Twilight 3:48 AM CDT 10:19 PM CDT
Moon 11:20 AM CDT (5/16) 12:41 AM CDT (5/16)
Length of Visible Light 15h 40m
Length of Day
14h 36m
Waxing Crescent, 36% of the Moon is Illuminated
May 16
Waxing Crescent
May 17
First Quarter
May 24
Full
May 31
Last Quarter
Jun 8
New

Hourly Weather History & Observations

Time (CDT) Temp. Dew Point Humidity Pressure Visibility Wind Dir Wind Speed Gust Speed Precip Events Conditions
12:52 AM 64.0 °F 46.0 °F 52% 29.85 in 10.0 mi NE 6.9 mph - N/A   Clear
1:52 AM 62.1 °F 46.9 °F 58% 29.85 in 10.0 mi NE 6.9 mph - N/A   Clear
2:52 AM 59.0 °F 46.9 °F 64% 29.86 in 10.0 mi Calm Calm - N/A   Clear
3:52 AM 59.0 °F 46.9 °F 64% 29.86 in 10.0 mi Calm Calm - N/A   Clear
4:52 AM 55.9 °F 46.9 °F 72% 29.88 in 10.0 mi Calm Calm - N/A   Clear
5:52 AM 54.0 °F 48.0 °F 80% 29.89 in 10.0 mi South 3.5 mph - N/A   Clear
6:52 AM 57.9 °F 50.0 °F 75% 29.90 in 10.0 mi Calm Calm - N/A   Clear
7:52 AM 63.0 °F 52.0 °F 67% 29.90 in 10.0 mi Calm Calm - N/A   Partly Cloudy
8:52 AM 68.0 °F 51.1 °F 55% 29.91 in 10.0 mi SE 4.6 mph - N/A   Mostly Cloudy
9:52 AM 71.1 °F 46.9 °F 42% 29.92 in 10.0 mi ESE 8.1 mph - N/A   Mostly Cloudy
10:52 AM 72.0 °F 48.0 °F 43% 29.92 in 10.0 mi SSE 10.4 mph - N/A   Overcast
11:52 AM 75.0 °F 48.0 °F 38% 29.90 in 10.0 mi SE 8.1 mph - N/A   Mostly Cloudy
12:52 PM 77.0 °F 46.9 °F 34% 29.88 in 10.0 mi SSE 8.1 mph - N/A   Clear
1:52 PM 79.0 °F 46.9 °F 32% 29.87 in 10.0 mi SSE 10.4 mph - N/A   Clear
2:52 PM 81.0 °F 46.0 °F 29% 29.86 in 10.0 mi SSE 10.4 mph - N/A   Clear
3:52 PM 81.0 °F 44.1 °F 27% 29.84 in 10.0 mi SE 9.2 mph - N/A   Partly Cloudy
4:52 PM 81.0 °F 46.9 °F 30% 29.84 in 10.0 mi South 10.4 mph - N/A   Scattered Clouds
5:52 PM 80.1 °F 46.9 °F 31% 29.83 in 10.0 mi South 9.2 mph - N/A   Scattered Clouds
6:52 PM 79.0 °F 48.9 °F 35% 29.82 in 10.0 mi SSE 8.1 mph - N/A   Scattered Clouds
7:52 PM 75.9 °F 52.0 °F 43% 29.83 in 10.0 mi ESE 3.5 mph - N/A   Clear
8:52 PM 72.0 °F 54.0 °F 53% 29.85 in 10.0 mi ESE 4.6 mph - N/A   Overcast
9:52 PM 71.1 °F 54.0 °F 55% 29.87 in 10.0 mi ESE 4.6 mph - N/A   Mostly Cloudy
10:52 PM 69.1 °F 57.0 °F 65% 29.86 in 10.0 mi SE 4.6 mph - N/A   Mostly Cloudy
11:52 PM 69.1 °F 59.0 °F 70% 29.86 in 10.0 mi SSE 3.5 mph - N/A   Clear